| time (UTC) | temp F | wind direction | speed MPH | gust MPH | rain 1hr in | rain 24hr in | rain mn in | humidity % | barometer mb |
| 20260507201305 | 66 | 139 | 6.0 | 12.0 | 0.00 | 0.00 | 0.00 | 84 | 1015.5 |
| 20260507200805 | 66 | 119 | 3.0 | 9.0 | 0.00 | 0.00 | 0.00 | 84 | 1015.5 |
| 20260507200304 | 66 | 138 | 6.0 | 10.0 | 0.00 | 0.00 | 0.00 | 84 | 1015.5 |
| 20260507195805 | 66 | 153 | 2.0 | 10.0 | 0.00 | 0.00 | 0.00 | 84 | 1015.5 |
| 20260507194805 | 66 | 148 | 6.0 | 12.0 | 0.00 | 0.00 | 0.00 | 84 | 1015.3 |
| 20260507193804 | 66 | 138 | 5.0 | 10.0 | 0.00 | 0.00 | 0.00 | 84 | 1015.2 |
| 20260507193304 | 66 | 137 | 6.0 | 12.0 | 0.00 | 0.00 | 0.00 | 84 | 1015.2 |
| 20260507192804 | 66 | 139 | 4.0 | 10.0 | 0.00 | 0.00 | 0.00 | 84 | 1015.2 |
| 20260507192306 | 66 | 149 | 5.0 | 12.0 | 0.00 | 0.00 | 0.00 | 84 | 1015.2 |
| 20260507191805 | 66 | 129 | 3.0 | 10.0 | 0.00 | 0.00 | 0.00 | 84 | 1015.1 |
| 20260507191304 | 66 | 140 | 5.0 | 10.0 | 0.00 | 0.00 | 0.00 | 84 | 1015.2 |
| 20260507190804 | 66 | 140 | 9.0 | 16.0 | 0.00 | 0.00 | 0.00 | 84 | 1015.1 |
| 20260507190304 | 66 | 152 | 7.0 | 15.0 | 0.00 | 0.00 | 0.00 | 84 | 1015.0 |
| 20260507185804 | 66 | 162 | 6.0 | 13.0 | 0.00 | 0.00 | 0.00 | 84 | 1014.9 |
| 20260507185306 | 66 | 156 | 7.0 | 12.0 | 0.00 | 0.00 | 0.00 | 84 | 1015.0 |
| 20260507184804 | 66 | 160 | 6.0 | 13.0 | 0.00 | 0.00 | 0.00 | 84 | 1015.0 |
| 20260507183805 | 66 | 145 | 6.0 | 14.0 | 0.00 | 0.00 | 0.00 | 84 | 1014.9 |
| 20260507183306 | 66 | 131 | 7.0 | 12.0 | 0.00 | 0.00 | 0.00 | 84 | 1014.8 |
| 20260507182805 | 66 | 146 | 4.0 | 12.0 | 0.00 | 0.00 | 0.00 | 84 | 1014.8 |
| 20260507181804 | 66 | 165 | 3.0 | 10.0 | 0.00 | 0.00 | 0.00 | 84 | 1014.7 |
| 20260507181304 | 65 | 154 | 6.0 | 9.0 | 0.00 | 0.00 | 0.00 | 84 | 1014.8 |
| 20260507180805 | 65 | 158 | 5.0 | 7.0 | 0.00 | 0.00 | 0.00 | 84 | 1014.8 |
| 20260507180305 | 65 | 162 | 2.0 | 6.0 | 0.00 | 0.00 | 0.00 | 84 | 1014.8 |
| 20260507175804 | 66 | 189 | 2.0 | 3.0 | 0.00 | 0.00 | 0.00 | 84 | 1014.8 |
| 20260507175307 | 66 | 144 | 2.0 | 3.0 | 0.00 | 0.00 | 0.00 | 84 | 1014.8 |
| 20260507174804 | 65 | 164 | 5.0 | 10.0 | 0.00 | 0.00 | 0.00 | 84 | 1014.8 |
| 20260507174305 | 65 | 128 | 2.0 | 6.0 | 0.00 | 0.00 | 0.00 | 84 | 1014.7 |
| 20260507172804 | 65 | 146 | 2.0 | 5.0 | 0.00 | 0.00 | 0.00 | 84 | 1014.8 |
| 20260507171805 | 66 | 109 | 2.0 | 7.0 | 0.00 | 0.00 | 0.00 | 84 | 1014.9 |
| 20260507171306 | 66 | 138 | 2.0 | 7.0 | 0.00 | 0.00 | 0.00 | 84 | 1015.0 |
| 20260507170304 | 66 | 140 | 3.0 | 6.0 | 0.00 | 0.00 | 0.00 | 84 | 1014.9 |
| 20260507165306 | 66 | 109 | 1.0 | 3.0 | 0.00 | 0.00 | 0.00 | 84 | 1015.0 |
| 20260507164804 | 66 | 121 | 2.0 | 6.0 | 0.00 | 0.00 | 0.00 | 84 | 1015.0 |
| 20260507164304 | 66 | 129 | 2.0 | 3.0 | 0.00 | 0.00 | 0.00 | 84 | 1015.0 |
| 20260507163804 | 66 | 151 | 3.0 | 6.0 | 0.00 | 0.00 | 0.00 | 84 | 1015.0 |
| 20260507162804 | 66 | 139 | 5.0 | 8.0 | 0.00 | 0.00 | 0.00 | 84 | 1015.0 |
| 20260507162307 | 66 | 154 | 6.0 | 12.0 | 0.00 | 0.00 | 0.00 | 83 | 1015.0 |
| 20260507161805 | 66 | 156 | 5.0 | 9.0 | 0.00 | 0.00 | 0.00 | 83 | 1015.1 |
| 20260507161304 | 66 | 165 | 6.0 | 12.0 | 0.00 | 0.00 | 0.00 | 83 | 1015.1 |
| 20260507160804 | 66 | 155 | 6.0 | 10.0 | 0.00 | 0.00 | 0.00 | 83 | 1015.2 |
| 20260507155804 | 66 | 156 | 5.0 | 12.0 | 0.00 | 0.00 | 0.00 | 83 | 1015.3 |
| 20260507155306 | 66 | 152 | 6.0 | 9.0 | 0.00 | 0.00 | 0.00 | 83 | 1015.2 |
| 20260507154804 | 66 | 165 | 7.0 | 12.0 | 0.00 | 0.00 | 0.00 | 83 | 1015.2 |
| 20260507154304 | 66 | 159 | 5.0 | 9.0 | 0.00 | 0.00 | 0.00 | 83 | 1015.2 |
| 20260507153306 | 66 | 153 | 5.0 | 9.0 | 0.00 | 0.00 | 0.00 | 83 | 1015.4 |
| 20260507152805 | 66 | 155 | 6.0 | 9.0 | 0.00 | 0.00 | 0.00 | 83 | 1015.4 |
| 20260507152307 | 66 | 177 | 7.0 | 10.0 | 0.00 | 0.00 | 0.00 | 83 | 1015.5 |
| 20260507151805 | 66 | 164 | 5.0 | 10.0 | 0.00 | 0.00 | 0.00 | 83 | 1015.6 |
| 20260507151304 | 66 | 153 | 6.0 | 10.0 | 0.00 | 0.00 | 0.00 | 83 | 1015.6 |
| 20260507150804 | 66 | 162 | 9.0 | 10.0 | 0.00 | 0.00 | 0.00 | 83 | 1015.6 |
| 20260507145306 | 66 | 163 | 3.0 | 6.0 | 0.00 | 0.00 | 0.00 | 83 | 1015.8 |
| 20260507144805 | 66 | 156 | 3.0 | 7.0 | 0.00 | 0.00 | 0.00 | 84 | 1015.8 |
| 20260507144305 | 66 | 136 | 3.0 | 9.0 | 0.00 | 0.00 | 0.00 | 84 | 1015.8 |
| 20260507143804 | 66 | 138 | 3.0 | 8.0 | 0.00 | 0.00 | 0.00 | 84 | 1015.9 |
| 20260507143305 | 66 | 160 | 3.0 | 8.0 | 0.00 | 0.00 | 0.00 | 84 | 1015.9 |
| 20260507142804 | 66 | 150 | 6.0 | 9.0 | 0.00 | 0.00 | 0.00 | 84 | 1015.9 |
| 20260507140804 | 66 | 158 | 5.0 | 7.0 | 0.00 | 0.00 | 0.00 | 84 | 1015.9 |
| 20260507135805 | 66 | 148 | 2.0 | 8.0 | 0.00 | 0.00 | 0.00 | 84 | 1015.9 |
| 20260507135306 | 66 | 162 | 4.0 | 12.0 | 0.00 | 0.00 | 0.00 | 83 | 1016.0 |
| 20260507134805 | 66 | 156 | 3.0 | 7.0 | 0.00 | 0.00 | 0.00 | 83 | 1015.9 |
| 20260507134304 | 66 | 155 | 3.0 | 6.0 | 0.00 | 0.00 | 0.00 | 83 | 1016.0 |
| 20260507133805 | 66 | 153 | 3.0 | 6.0 | 0.00 | 0.00 | 0.00 | 83 | 1015.9 |
| 20260507132805 | 67 | 159 | 5.0 | 8.0 | 0.00 | 0.00 | 0.00 | 83 | 1016.2 |
| 20260507132307 | 67 | 159 | 3.0 | 7.0 | 0.00 | 0.00 | 0.00 | 83 | 1016.2 |
| 20260507131805 | 67 | 160 | 4.0 | 12.0 | 0.00 | 0.00 | 0.00 | 83 | 1016.3 |
| 20260507131305 | 67 | 165 | 5.0 | 12.0 | 0.00 | 0.00 | 0.00 | 83 | 1016.3 |
| 20260507130804 | 67 | 172 | 6.0 | 10.0 | 0.00 | 0.00 | 0.00 | 83 | 1016.3 |
| 20260507130305 | 67 | 167 | 7.0 | 12.0 | 0.00 | 0.00 | 0.00 | 83 | 1016.3 |
| 20260507125808 | 67 | 154 | 5.0 | 9.0 | 0.00 | 0.00 | 0.00 | 83 | 1016.3 |
| 20260507125307 | 67 | 172 | 6.0 | 9.0 | 0.00 | 0.00 | 0.00 | 83 | 1016.3 |
| 20260507124805 | 67 | 144 | 4.0 | 12.0 | 0.00 | 0.00 | 0.00 | 83 | 1016.3 |
| 20260507124304 | 67 | 145 | 6.0 | 10.0 | 0.00 | 0.00 | 0.00 | 83 | 1016.4 |
| 20260507123805 | 68 | 145 | 6.0 | 9.0 | 0.00 | 0.00 | 0.00 | 82 | 1016.6 |
| 20260507123306 | 68 | 131 | 5.0 | 9.0 | 0.00 | 0.00 | 0.00 | 82 | 1016.6 |
| 20260507122804 | 68 | 139 | 8.0 | 10.0 | 0.00 | 0.00 | 0.00 | 82 | 1016.6 |
| 20260507121804 | 68 | 142 | 7.0 | 12.0 | 0.00 | 0.00 | 0.00 | 82 | 1016.7 |
| 20260507120804 | 68 | 126 | 3.0 | 10.0 | 0.00 | 0.00 | 0.00 | 82 | 1016.8 |
| 20260507120305 | 68 | 140 | 8.0 | 14.0 | 0.00 | 0.00 | 0.00 | 82 | 1016.9 |
| 20260507115805 | 68 | 133 | 5.0 | 8.0 | 0.00 | 0.00 | 0.00 | 82 | 1016.9 |
| 20260507115307 | 68 | 113 | 7.0 | 12.0 | 0.00 | 0.00 | 0.00 | 82 | 1016.9 |
| 20260507114805 | 68 | 136 | 6.0 | 10.0 | 0.00 | 0.00 | 0.00 | 82 | 1016.9 |
| 20260507114304 | 68 | 116 | 7.0 | 10.0 | 0.00 | 0.00 | 0.00 | 82 | 1016.8 |
| 20260507113305 | 68 | 117 | 5.0 | 9.0 | 0.00 | 0.00 | 0.00 | 81 | 1016.9 |
| 20260507112804 | 68 | 121 | 5.0 | 12.0 | 0.00 | 0.00 | 0.00 | 81 | 1017.0 |
| 20260507112307 | 68 | 113 | 4.0 | 8.0 | 0.00 | 0.00 | 0.00 | 81 | 1017.0 |
| 20260507111805 | 68 | 113 | 3.0 | 6.0 | 0.00 | 0.00 | 0.00 | 81 | 1017.0 |
| 20260507111305 | 68 | 110 | 5.0 | 9.0 | 0.00 | 0.00 | 0.00 | 81 | 1017.1 |
| 20260507110305 | 68 | 92 | 5.0 | 12.0 | 0.00 | 0.00 | 0.00 | 81 | 1016.9 |
| 20260507105805 | 69 | 107 | 3.0 | 6.0 | 0.00 | 0.00 | 0.00 | 81 | 1016.9 |
| 20260507104804 | 69 | 108 | 5.0 | 8.0 | 0.00 | 0.00 | 0.00 | 81 | 1016.9 |
| 20260507104304 | 69 | 109 | 6.0 | 9.0 | 0.00 | 0.00 | 0.00 | 81 | 1016.8 |
| 20260507103804 | 69 | 100 | 4.0 | 7.0 | 0.00 | 0.00 | 0.00 | 81 | 1016.9 |
| 20260507103304 | 69 | 142 | 3.0 | 7.0 | 0.00 | 0.00 | 0.00 | 80 | 1016.9 |
| 20260507102805 | 69 | 116 | 3.0 | 7.0 | 0.00 | 0.00 | 0.00 | 80 | 1016.9 |
| 20260507102307 | 69 | 115 | 4.0 | 8.0 | 0.00 | 0.00 | 0.00 | 80 | 1016.8 |
| 20260507101804 | 69 | 126 | 3.0 | 5.0 | 0.00 | 0.00 | 0.00 | 80 | 1016.8 |
| 20260507101305 | 69 | 117 | 6.0 | 10.0 | 0.00 | 0.00 | 0.00 | 80 | 1016.7 |
| 20260507100805 | 69 | 109 | 3.0 | 7.0 | 0.00 | 0.00 | 0.00 | 80 | 1016.6 |
| 20260507100304 | 70 | 119 | 3.0 | 9.0 | 0.00 | 0.00 | 0.00 | 80 | 1016.5 |
| 20260507095306 | 70 | 104 | 3.0 | 9.0 | 0.00 | 0.00 | 0.00 | 80 | 1016.4 |
| 20260507094804 | 70 | 115 | 5.0 | 9.0 | 0.00 | 0.00 | 0.00 | 80 | 1016.3 |
| 20260507094305 | 70 | 124 | 4.0 | 10.0 | 0.00 | 0.00 | 0.00 | 79 | 1016.3 |
| 20260507093804 | 70 | 122 | 5.0 | 8.0 | 0.00 | 0.00 | 0.00 | 79 | 1016.2 |
| 20260507093304 | 71 | 92 | 5.0 | 8.0 | 0.00 | 0.00 | 0.00 | 79 | 1016.0 |
| 20260507092805 | 71 | 102 | 6.0 | 12.0 | 0.00 | 0.00 | 0.00 | 79 | 1015.9 |
| 20260507091804 | 71 | 108 | 5.0 | 9.0 | 0.00 | 0.00 | 0.00 | 78 | 1016.0 |
| 20260507085804 | 72 | 130 | 5.0 | 10.0 | 0.00 | 0.00 | 0.00 | 78 | 1015.8 |
| 20260507085306 | 72 | 147 | 5.0 | 12.0 | 0.00 | 0.00 | 0.00 | 78 | 1015.7 |
| 20260507084804 | 72 | 135 | 5.0 | 9.0 | 0.00 | 0.00 | 0.00 | 78 | 1015.6 |
| 20260507084305 | 72 | 124 | 4.0 | 9.0 | 0.00 | 0.00 | 0.00 | 78 | 1015.6 |
| 20260507083805 | 72 | 126 | 2.0 | 5.0 | 0.00 | 0.00 | 0.00 | 78 | 1015.5 |
| 20260507082804 | 72 | 148 | 4.0 | 9.0 | 0.00 | 0.00 | 0.00 | 78 | 1015.3 |
| 20260507082306 | 72 | 138 | 3.0 | 7.0 | 0.00 | 0.00 | 0.00 | 77 | 1015.3 |
| 20260507081804 | 72 | 120 | 3.0 | 9.0 | 0.00 | 0.00 | 0.00 | 77 | 1015.2 |
| 20260507081304 | 73 | 137 | 5.0 | 8.0 | 0.00 | 0.00 | 0.00 | 77 | 1015.1 |
| 20260507080804 | 73 | 141 | 3.0 | 6.0 | 0.00 | 0.00 | 0.00 | 76 | 1014.9 |
| 20260507075804 | 74 | 113 | 5.0 | 9.0 | 0.00 | 0.00 | 0.00 | 75 | 1014.9 |
| 20260507075307 | 74 | 136 | 5.0 | 10.0 | 0.00 | 0.00 | 0.00 | 74 | 1014.9 |
| 20260507074804 | 78 | 3 | 0.0 | 0.0 | 0.00 | 0.00 | 0.00 | 71 | 1014.8 |
| 20260507074304 | 78 | 3 | 0.0 | 0.0 | 0.00 | 0.00 | 0.00 | 71 | 1014.7 |
| 20260507073806 | 78 | 3 | 0.0 | 0.0 | 0.00 | 0.00 | 0.00 | 71 | 1014.7 |
| 20260507073305 | 78 | 3 | 0.0 | 0.0 | 0.00 | 0.00 | 0.00 | 71 | 1014.6 |
| 20260507072307 | 78 | 3 | 0.0 | 0.0 | 0.00 | 0.00 | 0.00 | 71 | 1014.5 |
| 20260507071304 | 78 | 92 | 12.0 | 12.0 | 0.00 | 0.00 | 0.00 | 71 | 1014.3 |
| 20260507070304 | 78 | 132 | 10.0 | 16.0 | 0.00 | 0.00 | 0.00 | 70 | 1014.2 |
| 20260507065804 | 78 | 116 | 4.0 | 12.0 | 0.00 | 0.00 | 0.00 | 70 | 1014.1 |
| 20260507065306 | 78 | 119 | 6.0 | 12.0 | 0.00 | 0.00 | 0.00 | 70 | 1014.0 |
| 20260507064804 | 78 | 145 | 7.0 | 15.0 | 0.00 | 0.00 | 0.00 | 70 | 1014.0 |
| 20260507064304 | 79 | 3 | 0.0 | 0.0 | 0.00 | 0.00 | 0.00 | 69 | 1013.9 |
| 20260507063805 | 79 | 3 | 0.0 | 0.0 | 0.00 | 0.00 | 0.00 | 69 | 1013.9 |
| 20260507063305 | 79 | 3 | 0.0 | 0.0 | 0.00 | 0.00 | 0.00 | 69 | 1013.8 |
| 20260507062805 | 79 | 3 | 0.0 | 0.0 | 0.00 | 0.00 | 0.00 | 69 | 1013.7 |
| 20260507062306 | 79 | 3 | 0.0 | 0.0 | 0.00 | 0.00 | 0.00 | 69 | 1013.6 |
| 20260507061804 | 79 | 3 | 0.0 | 0.0 | 0.00 | 0.00 | 0.00 | 69 | 1013.5 |
| 20260507061304 | 79 | 6 | 1.0 | 7.0 | 0.00 | 0.00 | 0.00 | 69 | 1013.3 |
| 20260507060805 | 79 | 123 | 7.0 | 7.0 | 0.00 | 0.00 | 0.00 | 69 | 1013.2 |
| 20260507060304 | 79 | 123 | 7.0 | 8.0 | 0.00 | 0.00 | 0.00 | 69 | 1013.2 |
| 20260507055805 | 79 | 125 | 4.0 | 9.0 | 0.00 | 0.00 | 0.00 | 69 | 1013.2 |
| 20260507055306 | 79 | 151 | 9.0 | 9.0 | 0.00 | 0.00 | 0.00 | 69 | 1013.2 |
| 20260507054805 | 79 | 126 | 6.0 | 9.0 | 0.00 | 0.00 | 0.00 | 69 | 1013.2 |
| 20260507054304 | 79 | 136 | 5.0 | 9.0 | 0.00 | 0.00 | 0.00 | 68 | 1013.2 |
| 20260507053305 | 80 | 98 | 9.0 | 9.0 | 0.00 | 0.00 | 0.00 | 67 | 1013.2 |
| 20260507052804 | 80 | 137 | 3.0 | 9.0 | 0.00 | 0.00 | 0.00 | 67 | 1013.1 |
| 20260507052306 | 81 | 154 | 3.0 | 8.0 | 0.00 | 0.00 | 0.00 | 66 | 1013.1 |
| 20260507051805 | 81 | 148 | 6.0 | 12.0 | 0.00 | 0.00 | 0.00 | 67 | 1013.1 |
| 20260507050805 | 80 | 166 | 5.0 | 9.0 | 0.00 | 0.00 | 0.00 | 68 | 1013.1 |
| 20260507050304 | 80 | 129 | 3.0 | 8.0 | 0.00 | 0.00 | 0.00 | 68 | 1013.1 |
| 20260507045805 | 80 | 141 | 6.0 | 10.0 | 0.00 | 0.00 | 0.00 | 68 | 1013.1 |
| 20260507045306 | 80 | 122 | 3.0 | 7.0 | 0.00 | 0.00 | 0.00 | 68 | 1013.2 |
| 20260507044804 | 80 | 133 | 5.0 | 9.0 | 0.00 | 0.00 | 0.00 | 68 | 1013.2 |
| 20260507044305 | 80 | 88 | 4.0 | 7.0 | 0.00 | 0.00 | 0.00 | 67 | 1013.1 |
| 20260507043804 | 79 | 115 | 4.0 | 10.0 | 0.00 | 0.00 | 0.00 | 68 | 1013.2 |
| 20260507043305 | 79 | 152 | 7.0 | 10.0 | 0.00 | 0.00 | 0.00 | 67 | 1013.2 |
| 20260507042804 | 79 | 136 | 6.0 | 10.0 | 0.00 | 0.00 | 0.00 | 67 | 1013.3 |
| 20260507042307 | 79 | 134 | 5.0 | 9.0 | 0.00 | 0.00 | 0.00 | 67 | 1013.3 |
| 20260507041805 | 79 | 127 | 5.0 | 8.0 | 0.00 | 0.00 | 0.00 | 66 | 1013.4 |
| 20260507041304 | 80 | 134 | 7.0 | 7.0 | 0.00 | 0.00 | 0.00 | 66 | 1013.4 |
| 20260507040806 | 80 | 134 | 6.0 | 9.0 | 0.00 | 0.00 | 0.00 | 66 | 1013.4 |
| 20260507040305 | 80 | 96 | 4.0 | 7.0 | 0.00 | 0.00 | 0.00 | 67 | 1013.4 |
| 20260507035804 | 80 | 106 | 5.0 | 8.0 | 0.00 | 0.00 | 0.00 | 66 | 1013.5 |
| 20260507035306 | 80 | 118 | 5.0 | 8.0 | 0.00 | 0.00 | 0.00 | 65 | 1013.4 |
| 20260507034806 | 80 | 108 | 3.0 | 6.0 | 0.00 | 0.00 | 0.00 | 65 | 1013.5 |
| 20260507034305 | 80 | 105 | 6.0 | 6.0 | 0.00 | 0.00 | 0.00 | 65 | 1013.5 |
| 20260507033805 | 80 | 105 | 5.0 | 7.0 | 0.00 | 0.00 | 0.00 | 65 | 1013.5 |
| 20260507033304 | 80 | 88 | 5.0 | 7.0 | 0.00 | 0.00 | 0.00 | 65 | 1013.5 |
| 20260507032306 | 80 | 55 | 3.0 | 6.0 | 0.00 | 0.00 | 0.00 | 67 | 1013.6 |
| 20260507031804 | 79 | 69 | 4.0 | 8.0 | 0.00 | 0.00 | 0.00 | 68 | 1013.8 |
| 20260507031304 | 79 | 105 | 6.0 | 8.0 | 0.00 | 0.00 | 0.00 | 68 | 1013.8 |
| 20260507030805 | 79 | 104 | 3.0 | 7.0 | 0.00 | 0.00 | 0.00 | 68 | 1013.9 |
| 20260507030305 | 78 | 72 | 3.0 | 8.0 | 0.00 | 0.00 | 0.00 | 69 | 1013.9 |
| 20260507025805 | 78 | 91 | 3.0 | 3.0 | 0.00 | 0.00 | 0.00 | 69 | 1014.0 |
| 20260507024804 | 78 | 97 | 4.0 | 10.0 | 0.00 | 0.00 | 0.00 | 68 | 1014.1 |
| 20260507024304 | 78 | 118 | 3.0 | 6.0 | 0.00 | 0.00 | 0.00 | 70 | 1014.3 |
| 20260507023805 | 78 | 142 | 3.0 | 5.0 | 0.00 | 0.00 | 0.00 | 70 | 1014.4 |
| 20260507023304 | 77 | 86 | 4.0 | 6.0 | 0.00 | 0.00 | 0.00 | 70 | 1014.5 |
| 20260507022804 | 77 | 82 | 7.0 | 9.0 | 0.00 | 0.00 | 0.00 | 71 | 1014.5 |
| 20260507022306 | 77 | 79 | 5.0 | 8.0 | 0.00 | 0.00 | 0.00 | 71 | 1014.6 |
| 20260507021804 | 77 | 132 | 4.0 | 8.0 | 0.00 | 0.00 | 0.00 | 71 | 1014.6 |
| 20260507020805 | 77 | 143 | 6.0 | 12.0 | 0.00 | 0.00 | 0.00 | 71 | 1014.7 |
| 20260507020304 | 77 | 110 | 5.0 | 12.0 | 0.00 | 0.00 | 0.00 | 71 | 1014.8 |
| 20260507015804 | 77 | 112 | 5.0 | 8.0 | 0.00 | 0.00 | 0.00 | 71 | 1014.9 |
| 20260507015306 | 77 | 111 | 6.0 | 10.0 | 0.00 | 0.00 | 0.00 | 73 | 1014.9 |
| 20260507014805 | 76 | 121 | 7.0 | 7.0 | 0.00 | 0.00 | 0.00 | 73 | 1015.0 |
| 20260507014304 | 76 | 121 | 6.0 | 7.0 | 0.00 | 0.00 | 0.00 | 73 | 1015.2 |
| 20260507013805 | 76 | 140 | 5.0 | 12.0 | 0.00 | 0.00 | 0.00 | 73 | 1015.3 |
| 20260507013304 | 76 | 134 | 5.0 | 10.0 | 0.00 | 0.00 | 0.00 | 73 | 1015.3 |
| 20260507012805 | 76 | 156 | 5.0 | 9.0 | 0.00 | 0.00 | 0.00 | 74 | 1015.4 |
| 20260507012306 | 76 | 113 | 4.0 | 7.0 | 0.00 | 0.00 | 0.00 | 74 | 1015.4 |
| 20260507011804 | 76 | 101 | 3.0 | 7.0 | 0.00 | 0.00 | 0.00 | 74 | 1015.5 |
| 20260507010804 | 76 | 107 | 5.0 | 8.0 | 0.00 | 0.00 | 0.00 | 73 | 1015.6 |
| 20260507010304 | 76 | 126 | 6.0 | 8.0 | 0.00 | 0.00 | 0.00 | 73 | 1015.6 |
| 20260507005305 | 76 | 109 | 5.0 | 9.0 | 0.00 | 0.00 | 0.00 | 72 | 1015.9 |
| 20260507004806 | 77 | 134 | 2.0 | 9.0 | 0.00 | 0.00 | 0.00 | 72 | 1015.9 |
| 20260507003804 | 76 | 107 | 5.0 | 9.0 | 0.00 | 0.00 | 0.00 | 74 | 1015.9 |
| 20260507003304 | 76 | 147 | 5.0 | 12.0 | 0.00 | 0.00 | 0.00 | 74 | 1016.0 |
| 20260507002805 | 75 | 152 | 3.0 | 8.0 | 0.00 | 0.00 | 0.00 | 74 | 1016.1 |
| 20260507002306 | 75 | 148 | 4.0 | 10.0 | 0.00 | 0.00 | 0.00 | 74 | 1016.0 |
| 20260507001305 | 75 | 166 | 6.0 | 10.0 | 0.00 | 0.00 | 0.00 | 75 | 1016.1 |
| 20260507000804 | 75 | 158 | 5.0 | 8.0 | 0.00 | 0.00 | 0.00 | 75 | 1016.2 |
| 20260507000306 | 75 | 118 | 5.0 | 10.0 | 0.00 | 0.00 | 0.00 | 75 | 1016.3 |
| 20260506234805 | 76 | 168 | 7.0 | 9.0 | 0.00 | 0.00 | 0.00 | 73 | 1016.2 |
| 20260506234306 | 76 | 171 | 6.0 | 13.0 | 0.00 | 0.00 | 0.00 | 73 | 1016.2 |
| 20260506233804 | 76 | 109 | 7.0 | 10.0 | 0.00 | 0.00 | 0.00 | 72 | 1016.1 |
| 20260506233305 | 76 | 153 | 7.0 | 12.0 | 0.00 | 0.00 | 0.00 | 73 | 1016.1 |
| 20260506232804 | 76 | 102 | 7.0 | 12.0 | 0.00 | 0.00 | 0.00 | 73 | 1016.1 |
| 20260506231806 | 76 | 105 | 6.0 | 10.0 | 0.00 | 0.00 | 0.00 | 74 | 1016.1 |
| 20260506230304 | 75 | 122 | 7.0 | 12.0 | 0.00 | 0.00 | 0.00 | 74 | 1015.9 |
| 20260506225306 | 75 | 128 | 4.0 | 12.0 | 0.00 | 0.00 | 0.00 | 76 | 1016.0 |
| 20260506224804 | 74 | 127 | 5.0 | 10.0 | 0.00 | 0.00 | 0.00 | 76 | 1015.9 |
| 20260506224304 | 74 | 114 | 3.0 | 7.0 | 0.00 | 0.00 | 0.00 | 77 | 1015.9 |
| 20260506223804 | 73 | 154 | 2.0 | 7.0 | 0.00 | 0.00 | 0.00 | 77 | 1015.9 |
| 20260506223304 | 73 | 154 | 4.0 | 8.0 | 0.00 | 0.00 | 0.00 | 77 | 1015.9 |
| 20260506222804 | 73 | 115 | 3.0 | 10.0 | 0.00 | 0.00 | 0.00 | 78 | 1015.8 |
| 20260506222306 | 72 | 118 | 6.0 | 8.0 | 0.00 | 0.00 | 0.00 | 79 | 1015.8 |
| 20260506221805 | 72 | 123 | 3.0 | 10.0 | 0.00 | 0.00 | 0.00 | 79 | 1015.7 |
| 20260506221304 | 72 | 132 | 8.0 | 12.0 | 0.00 | 0.00 | 0.00 | 79 | 1015.7 |
| 20260506220804 | 71 | 115 | 8.0 | 12.0 | 0.00 | 0.00 | 0.00 | 79 | 1015.7 |
| 20260506220305 | 70 | 149 | 3.0 | 7.0 | 0.00 | 0.00 | 0.00 | 81 | 1015.7 |
| 20260506215306 | 69 | 171 | 4.0 | 8.0 | 0.00 | 0.00 | 0.00 | 82 | 1015.5 |
| 20260506214804 | 69 | 128 | 3.0 | 8.0 | 0.00 | 0.00 | 0.00 | 83 | 1015.5 |
| 20260506214304 | 68 | 144 | 4.0 | 6.0 | 0.00 | 0.00 | 0.00 | 84 | 1015.5 |
| 20260506213805 | 68 | 142 | 3.0 | 6.0 | 0.00 | 0.00 | 0.00 | 85 | 1015.5 |
| 20260506213304 | 67 | 136 | 2.0 | 5.0 | 0.00 | 0.00 | 0.00 | 86 | 1015.5 |
| 20260506212306 | 66 | 138 | 2.0 | 5.0 | 0.00 | 0.00 | 0.00 | 86 | 1015.4 |
| 20260506211804 | 65 | 138 | 1.0 | 7.0 | 0.00 | 0.00 | 0.00 | 86 | 1015.4 |
| 20260506210804 | 65 | 136 | 0.0 | 3.0 | 0.00 | 0.00 | 0.00 | 86 | 1015.3 |
| 20260506210305 | 64 | 136 | 1.0 | 3.0 | 0.00 | 0.00 | 0.00 | 86 | 1015.3 |
| 20260506205806 | 64 | 137 | 0.0 | 2.0 | 0.00 | 0.00 | 0.00 | 86 | 1015.3 |
| 20260506205306 | 64 | 136 | 1.0 | 2.0 | 0.00 | 0.00 | 0.00 | 85 | 1015.2 |
| 20260506204804 | 64 | 136 | 1.0 | 3.0 | 0.00 | 0.00 | 0.00 | 85 | 1015.1 |
| 20260506203805 | 64 | 136 | 0.0 | 0.0 | 0.00 | 0.00 | 0.00 | 85 | 1015.0 |
| 20260506203304 | 64 | 136 | 0.0 | 2.0 | 0.00 | 0.00 | 0.00 | 85 | 1015.0 |
| 20260506202306 | 64 | 136 | 1.0 | 3.0 | 0.00 | 0.00 | 0.00 | 85 | 1014.8 |